Temp
26 27 27 25 24 24 26 28 28 29 30 30 30 29 29 28 28 26 26 25 24 23 22 21 21 21 20 20 20 21 21 21 21 21 20 20 21 20 20 20 20 20 20 20 20 20 21 21 21
27 26 26 22 23 24 25 27 29 29 30 29 30 27 29 28 26 24 24 24 25 24 22 22 21 21 20 20 20 20 21 21 20 20 20 20 20 19 19 20 19 20 20 20 20 21 21 21 21
27 26 23 22 23 26 27 28 29 30 30 31 30 30 27 28 26 25 27 25 25 24 23 22 21 21 20 20 20 20 21 20 19 19 19 19 19 19 18 18 19 19 20 20 20 20 21 21 21
27 24 22 24 26 27 28 29 30 30 31 31 29 30 29 28 27 27 26 26 25 24 24 23 22 21 21 20 20 20 20 19 19 19 18 18 18 18 18 17 18 18 18 18 19 19 20 20 21
26 21 23 24 26 28 27 29 30 30 30 30 30 29 28 28 28 28 26 25 25 24 24 23 23 21 20 20 19 19 19 19 19 18 18 18 18 18 17 17 17 17 18 18 18 18 20 20 20
22 21 23 24 26 26 27 27 29 29 29 30 30 28 27 27 28 27 26 26 25 25 23 23 22 22 21 20 19 19 19 18 18 18 18 18 18 18 17 17 17 17 17 17 17 18 19 20 20
23 22 24 26 26 26 29 26 28 28 28 30 30 29 26 25 28 27 27 26 25 25 24 23 22 22 22 21 19 19 19 18 18 18 18 18 17 17 17 17 16 16 16 17 17 17 18 19 19
21 21 25 25 25 26 27 27 29 28 28 28 30 27 26 26 27 27 27 26 25 24 23 23 23 22 22 21 20 19 19 18 18 18 18 17 17 17 17 16 16 16 17 18 19 19 18 18 19
22 21 22 25 27 27 27 27 27 27 27 26 28 29 28 29 27 26 26 24 23 23 24 23 23 23 23 22 20 20 18 18 18 18 17 17 18 17 17 18 16 16 19 19 19 19 19 18 18
22 20 23 24 27 27 27 27 26 26 23 25 26 26 28 28 26 25 25 24 23 22 23 24 24 24 23 21 20 19 19 18 18 18 18 18 19 19 18 19 17 18 19 19 19 19 19 19 18
23 22 23 26 27 26 27 26 27 26 24 24 26 26 26 26 25 25 25 26 25 25 24 24 24 24 23 22 21 20 19 19 19 19 19 18 18 18 18 19 19 19 18 18 18 19 19 19 18
25 24 25 26 26 25 26 26 25 25 25 24 24 24 25 25 23 24 25 27 27 25 25 25 24 24 23 22 22 21 20 20 20 20 19 19 18 18 18 19 19 19 19 18 18 18 18 18 18
25 25 25 25 23 23 25 24 25 24 24 22 23 23 21 20 21 21 22 24 24 27 26 26 25 24 23 22 22 22 21 21 22 21 21 20 19 19 18 19 19 19 18 18 18 18 18 18 18
24 24 23 23 23 24 25 24 26 25 24 23 25 19 17 17 18 18 18 17 20 23 24 24 23 25 23 23 22 22 22 22 22 22 22 21 20 20 19 19 19 19 18 18 18 18 18 18 18
24 23 22 24 25 26 24 25 25 24 25 25 20 16 17 18 18 18 17 17 17 18 20 22 22 21 20 24 24 22 22 22 22 22 22 22 21 21 20 20 20 19 18 18 18 18 18 18 18
23 22 22 24 23 26 26 22 24 23 22 21 17 16 17 17 17 17 17 17 17 18 18 19 20 21 22 21 19 18 19 22 22 22 22 22 22 21 20 20 20 19 18 18 18 17 17 17 17
19 22 23 22 23 23 25 22 22 21 21 17 16 16 17 16 17 17 17 17 17 18 18 19 19 20 19 19 20 20 19 19 21 22 22 22 22 21 21 21 21 20 19 18 18 17 17 17 17
22 21 22 22 23 22 22 20 17 18 17 16 14 13 15 15 15 16 17 17 17 17 18 18 18 18 18 19 19 20 20 20 20 20 22 22 21 21 21 21 21 20 19 18 17 17 17 17 17
22 22 20 20 23 21 22 17 17 17 16 15 14 14 14 14 15 16 16 17 16 17 17 17 18 18 18 18 17 17 18 18 19 20 19 20 21 21 21 21 20 19 19 19 18 17 17 16 16
22 21 20 20 21 22 20 17 17 17 16 15 14 13 14 14 13 15 16 16 16 17 17 17 17 17 17 17 17 16 17 17 18 18 19 19 20 21 21 21 20 20 19 18 18 17 16 16 15
21 21 21 20 19 20 20 17 17 17 16 16 14 14 14 14 13 13 15 16 16 16 16 17 17 17 16 16 17 17 16 16 17 17 17 18 18 19 21 20 20 20 19 18 18 17 17 16 15
20 21 21 20 18 18 20 16 16 16 15 14 13 12 13 13 13 13 14 15 16 16 16 16 16 17 16 16 16 16 15 15 15 15 15 16 17 17 18 19 20 20 19 18 18 18 17 16 15
20 20 20 19 17 19 18 16 16 15 14 14 14 14 14 14 13 13 14 15 16 16 16 16 16 16 16 16 16 16 16 15 15 15 15 15 15 16 15 17 18 19 19 19 18 17 17 16 15
20 19 17 15 15 15 17 17 15 14 15 15 14 14 14 14 14 14 15 16 15 16 16 16 15 15 15 15 15 15 15 16 15 14 14 14 14 15 15 14 16 17 18 18 18 17 17 16 15
17 15 15 18 16 17 18 17 15 14 14 15 15 14 13 13 13 13 13 14 15 15 16 15 15 15 15 15 15 15 15 15 15 15 14 13 13 14 14 14 14 15 16 18 18 17 16 16 16
17 16 15 18 16 15 16 16 14 14 14 15 15 14 13 12 12 12 14 14 14 15 15 14 14 14 14 14 14 14 14 14 14 14 14 13 13 12 13 13 14 14 14 15 17 17 16 15 15
18 15 16 15 14 13 14 14 14 13 14 14 13 13 12 12 13 12 13 14 14 14 14 14 14 14 14 14 14 14 13 13 13 13 13 13 13 12 13 13 13 13 14 14 15 15 15 14 15
18 17 15 12 15 14 13 14 13 12 13 12 13 12 12 12 13 11 12 13 13 13 13 13 14 14 14 14 14 13 13 13 13 13 13 13 13 13 12 12 13 13 13 13 13 13 14 13 13
14 15 14 13 11 12 10 12 12 11 13 12 13 13 13 11 10 10 11 14 14 14 14 13 13 13 14 13 13 13 13 13 13 13 13 12 13 12 11 11 12 13 12 13 12 13 13 13 12
16 15 12 9 12 9 6 9 12 12 13 13 13 12 11 11 10 10 11 12 12 13 13 13 13 13 13 12 12 12 12 12 12 12 12 12 12 12 11 10 10 12 13 13 12 12 12 12 11
Height
804 803 802 802 829 830 835 825 808 809 803 790 786 795 802 801 808 830 796 798 802 804 808 811 812 814 816 818 819 819 819 819 820 819 819 819 819 819 821 820 819 819 820 820 820 820 820 819 819
804 804 803 810 841 851 843 816 814 804 791 787 786 796 799 805 794 795 796 798 801 804 807 810 813 814 815 816 816 817 818 818 819 819 819 819 819 820 820 820 821 820 821 821 821 821 821 821 821
805 804 812 828 842 846 836 810 803 796 787 787 791 785 794 796 789 791 791 794 799 803 807 810 811 813 814 815 815 816 817 818 818 819 819 819 819 820 820 820 821 821 821 821 821 821 822 822 822
804 805 815 837 837 824 817 804 795 797 788 784 788 797 788 785 785 787 789 792 796 801 805 808 810 812 814 815 815 816 816 817 818 819 819 819 819 819 819 819 820 821 821 821 821 821 822 822 823
806 814 837 841 835 818 808 798 794 799 795 791 788 798 795 785 785 786 788 792 795 799 803 806 809 811 813 815 816 817 816 817 818 819 819 819 820 819 820 819 819 820 820 821 820 821 822 822 823
819 822 848 854 837 820 811 802 797 797 796 790 791 797 796 787 785 787 789 792 795 798 803 805 808 809 811 813 815 816 817 817 818 819 820 820 820 819 819 819 819 819 819 819 820 821 822 822 823
823 837 845 837 835 826 810 801 804 802 800 795 785 798 794 788 784 785 789 792 794 797 800 802 804 806 808 811 814 816 817 818 819 819 820 820 820 820 819 819 819 818 818 818 819 820 821 822 823
821 832 837 836 839 832 807 803 796 801 801 786 784 801 801 784 786 788 790 792 794 796 798 799 802 805 807 809 811 814 817 818 818 819 819 819 819 818 819 819 819 819 818 818 818 819 821 821 822
815 845 853 836 827 822 807 810 798 796 798 794 788 787 784 782 787 790 792 793 796 797 798 800 801 803 804 807 809 811 814 815 817 818 819 819 820 820 820 820 820 820 819 819 819 820 820 821 822
828 849 838 819 812 816 808 808 805 805 807 800 793 786 784 781 785 788 790 791 794 795 795 796 797 798 800 804 807 810 812 814 816 817 818 819 819 820 821 821 820 820 820 820 820 820 821 821 822
824 837 822 812 807 806 808 808 800 806 811 801 798 792 786 786 786 787 789 789 787 788 791 791 792 794 797 800 803 807 808 810 812 814 816 818 819 819 820 820 820 820 820 820 820 820 821 821 822
825 816 814 809 805 808 810 803 807 804 801 791 791 790 787 786 788 787 786 783 784 785 784 786 789 790 792 795 797 800 803 805 808 811 813 815 817 818 819 819 820 820 820 820 821 821 821 821 821
821 816 811 809 808 807 804 807 808 804 794 789 789 788 795 795 794 794 793 792 789 784 781 781 783 785 787 789 792 794 796 799 800 804 808 811 814 816 818 819 820 820 820 820 820 820 820 821 821
819 817 815 809 807 803 807 807 803 797 793 791 788 802 802 802 802 798 797 795 789 787 787 788 784 780 782 783 784 785 788 790 794 797 799 803 807 811 815 817 818 819 820 820 820 820 820 821 821
815 824 819 810 805 803 804 812 809 794 793 794 803 808 810 811 806 806 807 802 798 792 787 782 784 787 788 778 778 781 782 786 788 790 793 797 800 804 808 812 815 817 818 819 819 819 819 820 820
826 829 839 814 811 803 805 831 806 800 802 809 815 817 815 815 813 810 810 806 802 796 790 787 785 785 788 789 790 792 789 782 783 787 790 793 796 798 802 806 809 812 814 816 818 818 818 818 818
844 848 838 832 814 814 812 824 813 806 805 819 821 822 820 820 816 815 813 809 806 802 797 792 789 786 788 789 789 789 788 788 789 787 787 788 791 794 796 799 802 807 810 812 814 816 816 816 816
848 848 839 840 822 819 820 831 830 819 819 824 828 829 825 824 824 821 817 813 809 806 802 798 794 791 790 789 789 787 786 787 788 789 787 785 787 789 792 794 797 801 805 809 811 813 814 814 815
836 841 845 836 821 824 824 840 838 834 831 834 835 834 832 829 827 823 819 815 812 808 805 802 798 796 793 791 790 788 787 786 786 788 788 788 788 785 788 791 793 795 797 801 806 809 811 812 813
834 840 845 833 821 823 829 846 842 838 839 838 838 837 835 832 829 825 822 817 814 812 809 806 803 801 798 796 793 792 790 788 787 787 788 790 788 785 787 784 787 790 792 794 798 802 805 808 810
838 838 840 842 832 825 828 849 845 841 841 839 839 838 836 834 831 828 824 820 817 814 812 809 807 804 801 798 793 790 787 785 785 785 785 785 785 785 782 783 783 784 787 789 791 794 797 801 806
847 831 833 837 844 854 830 865 848 847 847 844 843 841 838 835 832 828 825 821 819 816 814 811 808 805 802 799 796 794 794 791 789 787 786 783 782 782 780 778 777 778 780 782 784 787 790 795 799
842 830 834 834 845 843 841 854 846 845 851 847 844 840 837 833 831 828 825 822 819 816 813 810 807 804 802 800 798 795 792 790 787 785 781 779 777 778 776 774 772 770 772 774 777 780 784 786 789
832 835 839 845 852 864 840 845 851 851 848 846 843 839 835 832 829 826 823 820 817 814 810 806 805 804 801 798 795 791 788 785 781 779 778 777 774 771 771 769 766 764 763 766 767 770 775 778 781
844 857 868 854 863 855 832 842 845 848 845 842 841 839 834 830 827 825 821 818 815 811 808 804 802 801 799 796 792 790 787 784 780 777 774 772 770 767 765 762 760 758 756 756 759 761 765 769 772
850 856 873 865 872 862 840 844 847 844 842 840 838 836 833 830 826 823 820 817 814 810 807 804 800 797 796 792 789 787 784 779 776 775 772 768 766 763 761 757 753 752 750 749 750 752 755 759 763
850 864 856 866 870 874 855 849 847 844 843 841 839 834 831 827 824 823 819 816 812 808 805 803 799 795 793 790 786 781 778 776 774 770 766 763 760 759 756 752 747 744 743 742 742 742 745 749 754
847 850 867 879 875 875 862 851 843 846 844 841 836 835 829 823 821 820 816 812 807 804 801 798 795 792 789 785 779 775 773 769 765 761 759 758 755 752 749 746 740 735 735 735 734 734 736 740 744
864 865 869 874 884 882 886 854 835 841 839 837 832 828 823 821 823 819 812 807 804 801 798 795 791 785 780 777 777 776 772 767 763 760 755 752 748 746 744 739 735 729 725 727 728 726 728 731 735
858 862 875 897 881 894 918 868 830 833 827 828 828 826 824 822 819 816 812 807 802 798 794 790 787 782 778 777 774 771 766 761 757 753 748 746 743 740 737 733 730 724 721 721 721 721 720 722 727
Wind_Speed
7 5 4 3 4 3 2 3 2 4 1 2 3 6 4 4 2 3 4 22 12 23 22 18 16 16 15 14 12 11 9 9 9 9 9 8 8 9 10 11 13 12 11 9 10 11 11 13 13
9 6 2 2 4 3 4 3 4 4 5 5 5 5 2 3 2 4 10 23 17 21 22 19 17 16 16 15 14 11 9 10 10 10 9 9 9 11 10 9 12 13 11 9 9 10 11 12 13
7 3 3 4 2 1 3 4 4 3 4 3 4 1 8 4 4 12 7 28 22 20 20 19 17 16 15 16 14 13 11 12 11 11 11 11 12 12 11 12 11 11 12 9 10 9 11 12 12
6 5 4 4 2 4 4 4 2 2 3 2 2 3 1 5 8 13 18 27 26 23 19 19 18 17 17 15 14 13 13 13 13 12 12 12 12 12 10 11 12 11 9 9 8 9 11 11 12
4 3 4 3 4 5 6 5 3 0 1 4 1 2 3 6 5 18 29 30 29 25 22 20 17 16 16 16 14 13 13 14 14 13 12 12 11 11 10 11 11 11 11 10 9 8 9 11 12
4 3 4 2 4 5 6 7 4 3 1 3 2 3 4 4 15 22 32 30 28 27 24 21 18 16 17 16 15 15 14 14 14 13 12 11 11 11 11 10 11 11 11 11 10 10 11 10 11
4 3 3 3 4 6 3 9 4 3 6 3 3 1 3 5 20 27 30 28 27 27 28 25 21 18 17 16 16 15 14 13 13 13 12 11 11 10 10 10 10 10 10 10 10 11 12 12 11
4 4 1 3 2 6 5 7 1 6 5 7 2 2 4 11 22 27 27 26 28 30 28 26 23 20 19 19 18 17 16 15 14 14 13 13 12 11 11 10 10 10 10 10 10 11 12 12 12
3 4 2 4 2 5 4 6 3 4 4 5 5 2 7 10 21 24 23 20 27 28 28 26 24 22 20 20 21 19 18 17 16 14 14 13 12 11 11 10 9 9 10 10 11 11 11 12 12
4 3 7 5 1 4 4 1 5 6 9 5 6 10 11 11 23 23 16 18 26 29 31 29 28 25 24 22 22 22 21 20 18 18 17 15 14 12 10 8 9 9 9 11 11 11 10 11 12
4 5 4 4 4 3 4 5 1 3 7 6 5 8 8 4 9 16 21 23 31 35 34 34 32 29 27 26 25 25 25 23 22 20 19 16 16 14 12 10 10 10 10 11 12 10 9 10 11
1 7 5 5 3 5 5 5 5 6 10 7 8 6 6 7 8 16 20 28 26 30 36 36 35 33 32 30 28 28 28 26 24 22 20 20 20 18 15 11 11 11 11 10 10 9 9 10 10
4 3 4 7 10 6 3 9 4 9 11 10 8 7 10 10 15 23 21 19 19 27 33 39 38 37 36 35 32 31 31 30 26 25 24 22 24 21 19 15 13 12 12 11 11 9 11 11 10
4 4 9 8 7 5 4 4 4 8 5 9 3 19 15 16 20 30 32 28 25 13 13 14 36 40 38 39 38 38 35 33 30 27 27 26 25 23 21 19 17 15 14 12 11 10 11 11 10
5 6 8 5 4 3 2 4 5 8 3 6 15 13 15 17 29 25 24 29 31 31 26 21 8 29 28 40 42 40 40 37 35 32 29 29 27 26 26 23 22 19 16 15 15 14 13 13 12
4 4 4 5 9 5 3 7 7 10 7 11 14 9 14 17 23 26 27 30 34 39 40 41 30 12 8 22 20 20 30 40 39 35 32 30 30 28 28 26 24 21 19 19 19 17 16 15 14
6 2 2 9 5 5 2 7 7 11 5 14 11 10 13 13 20 26 28 31 31 37 41 41 40 37 30 18 7 21 21 32 36 35 34 34 34 32 31 30 26 24 24 23 22 21 19 18 17
3 3 4 4 6 8 7 6 15 16 16 13 9 8 11 12 10 19 25 29 34 33 39 39 37 38 38 33 22 23 6 20 31 34 37 36 37 36 35 32 28 28 27 26 25 24 22 19 17
2 2 5 5 3 5 3 6 10 10 14 12 9 8 8 9 10 18 25 31 32 36 35 34 35 34 35 36 35 30 29 24 12 27 32 35 39 38 37 34 31 32 32 31 28 26 24 22 17
2 3 5 5 5 3 4 6 6 7 6 7 7 7 7 5 7 16 23 28 31 33 33 33 31 30 30 29 30 23 20 26 25 22 18 28 33 39 38 38 36 36 35 34 32 30 27 24 19
3 3 2 5 6 2 1 3 5 4 8 8 7 5 4 5 6 7 17 23 27 31 31 30 30 28 25 26 28 30 26 29 28 30 28 25 27 37 41 41 40 38 38 38 38 36 32 28 25
4 1 2 5 5 3 5 4 5 5 6 6 6 5 4 5 5 6 13 20 21 27 29 26 28 29 21 24 27 27 25 20 23 25 25 27 25 28 40 43 43 43 42 41 42 40 36 32 27
6 3 5 4 5 2 3 2 3 5 5 5 6 6 5 3 2 4 8 15 16 23 28 28 26 31 19 24 23 23 26 25 22 25 28 29 29 29 30 44 47 47 47 45 45 42 39 38 32
5 4 4 4 3 0 5 5 4 1 3 2 4 6 6 4 3 3 8 12 13 18 25 26 26 25 24 25 26 26 27 27 25 27 26 29 33 33 31 32 45 50 50 49 47 46 43 41 40
10 6 4 3 3 6 3 1 1 6 4 2 4 8 8 7 4 4 7 10 12 17 21 21 18 23 26 29 31 29 27 28 18 24 28 29 30 31 34 30 34 43 48 52 50 48 46 44 43
2 3 4 4 3 5 8 4 4 7 6 2 2 6 8 9 5 6 8 10 10 14 16 11 14 20 24 27 30 29 28 24 18 24 28 29 29 30 32 31 33 38 44 49 51 50 47 46 44
3 3 2 0 2 1 3 2 6 5 3 2 6 7 8 7 4 5 9 9 12 15 14 8 15 19 21 24 26 31 27 22 25 30 33 30 29 29 32 36 30 35 39 43 49 47 46 44 46
3 1 3 3 3 5 5 4 5 7 4 5 9 6 6 7 5 7 10 13 14 15 13 13 20 22 21 24 25 30 35 38 35 38 34 28 29 30 33 35 34 29 36 40 44 42 44 42 43
5 3 4 2 4 4 4 6 6 7 3 10 11 12 11 4 6 6 12 23 22 20 13 16 20 25 30 24 24 26 34 37 33 34 39 28 29 33 32 31 32 30 31 38 38 39 40 43 40
2 2 4 4 5 2 3 8 8 5 13 15 14 10 8 6 6 7 16 20 18 17 18 19 24 25 26 22 24 32 31 37 33 36 35 31 30 30 30 31 29 26 25 32 36 37 35 43 37
Wind_Direction
352 338 325 28 53 56 247 246 212 261 92 217 165 112 158 130 134 222 171 174 175 172 172 173 168 163 157 156 152 153 154 158 152 145 135 132 127 123 112 118 109 109 110 105 100 103 102 96 102
355 9 24 73 72 38 284 295 287 229 191 177 102 109 119 199 169 150 132 177 181 173 175 174 169 166 160 160 162 161 163 158 155 148 144 143 133 129 127 133 114 110 111 111 111 108 108 108 110
353 358 73 82 110 257 263 222 215 263 219 148 134 132 156 205 180 173 192 178 177 173 178 176 172 172 168 166 165 164 162 156 151 142 137 135 131 131 131 128 129 127 122 117 115 122 120 123 123
355 18 34 76 296 273 240 295 61 238 303 304 111 111 111 230 164 182 174 176 176 174 179 177 176 176 175 174 170 169 167 158 152 148 146 142 139 139 137 135 136 142 138 133 126 125 135 136 137
35 56 44 31 292 286 294 277 114 84 6 281 75 230 165 318 201 170 172 175 177 176 175 176 179 182 178 179 179 177 171 161 161 157 154 150 148 146 146 141 140 146 147 147 139 133 137 148 148
36 87 47 331 279 281 304 333 327 24 358 60 5 115 228 236 168 172 173 180 184 180 179 181 184 186 184 184 188 184 178 171 168 166 163 162 157 153 153 149 146 147 146 149 148 144 138 151 156
105 78 205 251 282 319 315 321 33 336 337 295 188 143 285 229 181 173 180 184 185 184 183 184 188 191 193 195 193 189 184 183 178 177 175 175 167 165 161 160 155 151 146 146 152 154 152 158 175
106 94 287 264 256 274 323 341 333 43 297 306 305 199 235 232 191 179 182 187 186 186 189 190 191 193 196 200 203 197 191 191 190 190 188 185 182 177 173 170 164 159 154 150 151 157 166 175 163
85 67 233 247 220 268 320 358 318 293 328 338 337 351 259 254 183 185 186 182 190 192 195 197 196 199 205 205 205 202 196 197 197 199 198 196 199 188 179 183 174 169 159 155 150 152 156 161 165
95 123 222 218 203 260 288 16 307 12 333 313 337 338 356 168 178 187 198 185 190 196 201 203 202 206 206 205 207 207 203 205 207 208 207 210 206 201 200 199 184 175 167 162 161 161 162 158 167
175 201 221 266 254 288 277 299 244 358 309 236 269 288 314 224 194 197 210 212 203 207 205 208 209 208 207 205 208 210 213 212 214 217 215 214 211 210 213 211 194 178 169 170 175 177 175 174 171
243 240 228 275 342 336 301 306 312 213 248 243 254 252 278 222 224 221 224 220 220 209 214 216 214 211 210 209 210 209 212 216 219 223 219 215 216 220 219 220 207 196 187 188 190 195 191 184 180
221 286 290 286 285 261 262 249 245 281 277 295 302 314 11 18 9 24 1 329 290 236 223 220 218 216 213 210 211 211 212 215 219 220 221 219 221 231 223 228 225 217 210 209 204 195 188 187 183
303 284 288 290 288 250 263 298 131 280 338 357 35 61 54 43 41 40 30 17 19 351 315 273 226 219 216 215 217 215 213 216 216 216 217 218 220 226 226 235 234 229 227 222 217 214 204 199 196
284 321 328 315 326 318 131 351 226 252 306 348 45 71 61 51 47 45 37 33 31 34 37 22 259 228 223 219 223 221 218 216 217 217 213 213 218 222 224 232 237 235 231 226 224 221 215 211 212
348 49 359 291 1 359 48 268 281 336 1 23 91 68 66 54 48 41 39 41 39 39 38 40 41 47 245 237 236 237 230 220 219 218 215 216 220 221 221 226 235 233 231 230 227 224 219 219 217
9 321 293 320 351 357 25 289 347 319 14 87 73 62 61 52 41 36 41 41 38 38 36 37 38 39 40 47 273 243 240 236 231 225 220 219 219 219 219 227 234 231 231 229 227 227 225 221 221
290 317 280 271 313 353 321 17 18 37 76 82 66 50 63 54 31 34 39 39 40 38 35 36 36 31 29 28 29 33 318 259 238 236 226 223 219 219 221 227 230 226 230 230 228 229 226 232 231
213 251 283 261 294 344 329 57 48 54 64 60 52 49 47 42 12 38 42 41 38 36 34 33 30 26 23 21 20 18 20 19 316 255 234 229 228 223 222 226 226 224 227 231 230 228 231 231 227
304 288 304 284 323 327 3 84 66 63 60 68 70 57 55 35 18 24 36 39 39 34 31 30 28 25 22 21 21 17 13 14 16 5 293 262 243 229 229 226 227 226 227 226 224 223 227 230 219
316 261 304 266 315 302 65 147 112 64 67 61 39 39 29 47 37 14 26 34 36 31 25 22 20 16 16 18 14 12 15 9 3 360 351 342 282 245 234 235 233 231 228 228 223 223 226 226 220
328 196 269 305 11 270 63 278 224 114 59 36 21 30 28 12 18 23 27 27 31 26 17 13 11 8 17 18 12 10 9 4 357 355 351 344 339 285 252 242 238 235 232 229 231 228 228 224 222
246 313 266 242 200 325 319 119 202 164 39 357 343 356 354 8 356 22 23 21 29 22 18 11 3 0 9 5 6 2 355 349 346 346 344 344 340 334 304 260 246 238 233 234 234 230 227 226 224
294 319 354 49 104 359 219 165 202 173 156 313 333 332 323 342 340 360 17 15 20 16 10 9 6 12 3 1 356 349 345 340 336 339 339 337 332 329 327 293 258 245 236 232 235 234 232 228 228
38 32 345 353 357 231 186 10 281 167 197 107 16 336 309 318 301 318 348 357 360 0 357 4 6 358 353 349 344 339 331 326 317 324 332 328 325 321 320 310 275 247 237 236 235 235 233 230 230
352 127 147 275 263 291 326 249 226 185 162 126 337 290 313 315 290 310 326 330 316 322 333 352 3 353 344 342 336 330 332 323 311 324 326 326 323 320 319 315 293 260 242 235 232 234 234 232 231
332 47 164 188 345 343 254 21 353 182 173 308 328 332 324 309 283 303 302 315 313 315 325 329 349 346 338 335 328 329 329 330 315 319 317 314 318 318 316 314 310 274 247 234 231 227 230 231 232
87 203 21 15 308 286 287 255 226 206 252 306 339 322 315 293 280 277 289 294 304 318 325 332 338 332 323 329 335 329 320 323 322 323 318 300 309 313 316 316 313 291 253 237 229 225 228 226 227
345 354 56 126 154 221 296 256 180 171 233 333 334 331 327 282 262 271 322 332 326 322 310 321 327 327 325 318 321 316 314 308 307 314 313 291 301 310 311 316 308 309 262 240 229 224 222 226 221
197 99 91 123 274 257 165 267 160 198 349 353 344 330 332 321 297 297 307 309 316 311 303 312 316 313 316 314 311 308 309 310 301 308 309 304 292 301 306 317 313 306 292 247 233 226 218 222 212